Weather History for KMCK - May, 2014

Change the Weather History Date:

Wednesday, May 14, 2014

  Actual Average Record
Temperature  
Mean Temperature 50 °F 59 °F  
Max Temperature 68 °F 73 °F 100 °F (2013)
Min Temperature 31 °F 45 °F 29 °F (2004)
Degree Days  
Heating Degree Days 16    
Moisture  
Dew Point 32 °F    
Average Humidity 57    
Maximum Humidity 92    
Minimum Humidity 22    
Precipitation  
Precipitation T in 0.10 in 0.01 in (2007)
Month to date precipitation 0.11 1.33  
Year to date precipitation 1.97 6.13  
Sea Level Pressure  
Sea Level Pressure 30.30 in    
Wind  
Wind Speed 10 mph (WNW)    
Max Wind Speed 26 mph    
Max Gust Speed 34 mph    
Visibility 10 miles    
Events Rain    
T = Trace of Precipitation, MM = Missing Value Source: NWS Daily Summary

Daily Weather History Graph

Daily Weather History Graph

Search for Another Location

Airport or City:

Trip Planner

Search our weather history database for the weather conditions in past years. The results will help you decide how hot, cold, wet, or windy it might be!

Date:

Astronomy

May. 14, 2014 Rise Set
Actual Time 6:27 AM CDT 8:50 PM CDT
Civil Twilight 5:56 AM CDT 9:21 PM CDT
Nautical Twilight 5:18 AM CDT 9:59 PM CDT
Astronomical Twilight 4:37 AM CDT 10:41 PM CDT
Moon 8:57 PM CDT (5/14) 6:27 AM CDT (5/14)
Length of Visible Light 15h 24m
Length of Day
14h 22m
Full, 100% of the Moon is Illuminated
May 14
Full
May 14
Full
May 21
Last Quarter
May 28
New
Jun 5
First Quarter

Hourly Weather History & Observations

Time (CDT) Temp. Windchill Dew Point Humidity Pressure Visibility Wind Dir Wind Speed Gust Speed Precip Events Conditions
12:53 AM 42.1 °F 35.7 °F 35.1 °F 76% 30.38 in 10.0 mi WNW 11.5 mph - N/A   Mostly Cloudy
1:53 AM 39.0 °F 34.8 °F 34.0 °F 82% 30.38 in 10.0 mi WNW 5.8 mph - N/A   Clear
2:53 AM 36.0 °F 31.1 °F 33.1 °F 89% 30.38 in 10.0 mi WSW 5.8 mph - N/A   Clear
3:53 AM 36.0 °F 32.1 °F 33.1 °F 89% 30.37 in 10.0 mi West 4.6 mph - N/A   Clear
4:53 AM 33.1 °F 27.7 °F 30.9 °F 92% 30.37 in 10.0 mi WSW 5.8 mph - N/A   Clear
5:53 AM 32.0 °F 27.5 °F 30.0 °F 92% 30.36 in 10.0 mi WSW 4.6 mph - N/A   Clear
6:53 AM 32.0 °F 25.6 °F 30.0 °F 92% 30.37 in 8.0 mi WSW 6.9 mph - N/A   Clear
7:53 AM 37.9 °F 32.1 °F 34.0 °F 86% 30.36 in 10.0 mi West 8.1 mph - N/A   Clear
8:53 AM 45.0 °F 40.1 °F 35.1 °F 68% 30.36 in 10.0 mi West 9.2 mph - N/A   Clear
9:53 AM 51.8 °F - 37.4 °F 58% 30.34 in 10.0 mi West 5.8 mph - N/A   Clear
10:53 AM 59.0 °F - 36.0 °F 42% 30.33 in 10.0 mi WSW 9.2 mph - N/A   Clear
11:53 AM 59.0 °F - 30.9 °F 35% 30.31 in 10.0 mi West 13.8 mph 21.9 mph N/A   Overcast
12:53 PM 64.0 °F - 26.1 °F 24% 30.28 in 10.0 mi WNW 10.4 mph 18.4 mph N/A   Partly Cloudy
1:53 PM 64.0 °F - 27.0 °F 25% 30.25 in 10.0 mi North 11.5 mph - N/A   Partly Cloudy
2:53 PM 63.0 °F - 33.1 °F 33% 30.23 in 10.0 mi West 10.4 mph 18.4 mph 0.00 in Rain Light Rain
3:53 PM 60.8 °F - 30.2 °F 31% 30.22 in 10.0 mi North 26.5 mph 34.5 mph N/A   Mostly Cloudy
4:53 PM 66.9 °F - 27.0 °F 22% 30.21 in 10.0 mi NNW 16.1 mph 25.3 mph N/A   Partly Cloudy
5:53 PM 63.0 °F - 30.0 °F 29% 30.23 in 10.0 mi North 21.9 mph 28.8 mph N/A   Overcast
6:53 PM 60.1 °F - 30.9 °F 33% 30.24 in 10.0 mi NNW 15.0 mph - N/A   Mostly Cloudy
7:53 PM 57.9 °F - 33.1 °F 39% 30.23 in 10.0 mi North 12.7 mph - N/A   Partly Cloudy
8:53 PM 52.0 °F - 34.0 °F 50% 30.25 in 10.0 mi NNW 6.9 mph - N/A   Partly Cloudy
9:53 PM 52.0 °F - 34.0 °F 50% 30.24 in 10.0 mi WNW 8.1 mph - N/A   Overcast
10:53 PM 51.1 °F - 36.0 °F 56% 30.25 in 10.0 mi NW 13.8 mph - N/A   Mostly Cloudy
11:53 PM 46.9 °F - 37.0 °F 68% 30.27 in 10.0 mi NNW 10.4 mph - N/A   Mostly Cloudy